This demonstration page uses our WeatherBlox Daily Observations layout. Learn more.

Left ArrowRight Arrow

Hourly Observations for September 29, 2018

Temp ( °F °C ) Dew Point ( °F °C ) Humidity (%) Winds ( mph kmh ) Pressure ( in mb ) Visibility ( mi km ) Precip ( " mm )
12:53 am 00:53 Clear 58 14.4 52 11.1 81 81 Calm 30.23 1024 10 16 0.00 0.00
1:53 am 01:53 Clear 54 12.2 51 10.6 90 90 Calm 30.24 1024 10 16 0.00 0.00
2:53 am 02:53 Clear 52 11.1 50 10 93 93 Calm 30.24 1024 10 16 0.00 0.00
3:53 am 03:53 Clear 50 10 48 8.9 93 93 Calm 30.25 1024 10 16 0.00 0.00
4:53 am 04:53 Clear 52 11.1 49 9.4 89 89 Calm 30.27 1025 10 16 0.00 0.00
5:53 am 05:53 Clear 50 10 48 8.9 93 93 NW 3 6 30.28 1026 10 16 0.00 0.00
6:53 am 06:53 Clear 50 10 47 8.3 89 89 Calm 30.31 1026 10 16 0.00 0.00
7:53 am 07:53 Sunny 49 9.4 46 7.8 90 90 Calm 30.32 1027 10 16 0.00 0.00
8:53 am 08:53 Sunny 54 12.2 48 8.9 80 80 VRB 5 7 30.33 1027 10 16 0.00 0.00
9:53 am 09:53 Sunny 57 13.9 48 8.9 72 72 NE 6 9 30.34 1027 10 16 0.00 0.00
10:53 am 10:53 Sunny 60 15.6 48 8.9 65 65 NNE 5 7 30.35 1028 10 16 0.00 0.00
11:53 am 11:53 Sunny 63 17.2 50 10 63 63 ENE 6 9 30.34 1027 10 16 0.00 0.00
12:53 pm 12:53 Sunny 65 18.3 49 9.4 56 56 NNE 3 6 30.32 1027 10 16 0.00 0.00
1:53 pm 13:53 Sunny 67 19.4 50 10 55 55 Calm 30.31 1027 10 16 0.00 0.00
2:53 pm 14:53 Sunny 69 20.6 51 10.6 53 53 ENE 6 9 30.29 1026 10 16 0.00 0.00
3:53 pm 15:53 Sunny 70 21.1 51 10.6 51 51 WNW 5 7 30.27 1025 10 16 0.00 0.00
4:53 pm 16:53 Sunny 71 21.7 50 10 47 47 ENE 3 6 30.27 1025 10 16 0.00 0.00
5:53 pm 17:53 Sunny 70 21.1 51 10.6 51 51 Calm 30.26 1025 10 16 0.00 0.00
6:53 pm 18:53 Sunny 65 18.3 56 13.3 73 73 Calm 30.26 1025 10 16 0.00 0.00
7:53 pm 19:53 Mostly Cloudy 59 15 55 12.8 87 87 Calm 30.27 1025 10 16 0.00 0.00
8:53 pm 20:53 Mostly Cloudy 59 15 56 13.3 90 90 Calm 30.27 1025 10 16 0.00 0.00
9:53 pm 21:53 Clear 56 13.3 54 12.2 93 93 Calm 30.27 1025 10 16 0.00 0.00
10:53 pm 22:53 Clear 55 12.8 53 11.7 93 93 Calm 30.26 1025 10 16 0.00 0.00
11:53 pm 23:53 Clear 55 12.8 52 11.1 90 90 Calm 30.27 1025 10 16 0.00 0.00

Powered by AerisWeather